This is the latest recevied weather packets stored in our database for station/object KE8WMS. If no packets are shown the sender has not sent any weather packets the latest 10 day(s).
| Time | Temp. | Humidity | Pressure | Rain* | Wind** | Luminosity | Snow |
|---|---|---|---|---|---|---|---|
| 1787601687 | 23.33° C | 65% | 1011.9 hPa | 0 mm | - | 722 W/m² | - |
| 1787601382 | 22.78° C | 63% | 1011.9 hPa | 0 mm | - | 514 W/m² | - |
| 1787601081 | 21.67° C | 63% | 1011.9 hPa | 0 mm | - | 678 W/m² | - |
| 1787600775 | 22.78° C | 65% | 1012 hPa | 0 mm | - | 190 W/m² | - |
| 1787600471 | 22.22° C | 65% | 1011.7 hPa | 0 mm | - | 587 W/m² | - |
| 1787600167 | 22.78° C | 63% | 1012.1 hPa | 0 mm | - | 638 W/m² | - |
| 1787599863 | 21.67° C | 67% | 1012 hPa | 0 mm | - | 733 W/m² | - |
| 1787599559 | 21.11° C | 66% | 1012 hPa | 0 mm | - | 753 W/m² | - |
| 1787599256 | 21.67° C | 66% | 1012.1 hPa | 0 mm | - | 740 W/m² | - |
| 1787598951 | 21.67° C | 65% | 1012.1 hPa | 0 mm | - | 771 W/m² | - |
| 1787598646 | 21.11° C | 65% | 1012.2 hPa | 0 mm | - | 489 W/m² | - |
| 1787598346 | 21.11° C | 68% | 1012.1 hPa | 0 mm | - | 744 W/m² | - |
| 1787598043 | 21.67° C | 64% | 1012.2 hPa | 0 mm | - | 811 W/m² | - |
| 1787597742 | 21.67° C | 63% | 1012.2 hPa | 0 mm | - | 787 W/m² | - |
| 1787597441 | 21.67° C | 67% | 1012 hPa | 0 mm | - | 813 W/m² | - |
| 1787597136 | 21.11° C | 66% | 1012.1 hPa | 0 mm | - | 733 W/m² | - |
| 1787596833 | 21.67° C | 65% | 1012.2 hPa | 0 mm | - | 557 W/m² | - |
| 1787596527 | 20.56° C | 69% | 1012.2 hPa | 0 mm | - | 811 W/m² | - |
| 1787596223 | 20.56° C | 67% | 1012.2 hPa | 0 mm | - | 916 W/m² | - |
| 1787595919 | 21.11° C | 66% | 1012 hPa | 0 mm | - | 448 W/m² | - |
| 1787595620 | 21.11° C | 69% | 1012.2 hPa | 0 mm | - | 159 W/m² | - |
| 1787595316 | 20.56° C | 68% | 1012.4 hPa | 0 mm | - | 440 W/m² | - |
| 1787595014 | 20.56° C | 69% | 1012.3 hPa | 0 mm | - | 176 W/m² | - |
| 1787594709 | 21.11° C | 68% | 1012.4 hPa | 0 mm | - | 227 W/m² | - |
| 1787594409 | 21.11° C | 69% | 1012.4 hPa | 0 mm | - | 212 W/m² | - |
* Rain latest hour (hover to see other rain measurements)
** Current wind speed in m/s (hover to see current wind gust speed)